| time (UTC) | temp F | wind direction | speed MPH | gust MPH | rain 1hr in | rain 24hr in | rain mn in | humidity % | barometer mb |
| 20260505211516 | 73 | 235 | 13.0 | 19.0 | 0.00 | 0.02 | 0.02 | 26 | 1012.9 |
| 20260505210012 | 73 | 239 | 10.0 | 19.0 | 0.00 | 0.02 | 0.02 | 29 | 1013.0 |
| 20260505204611 | 73 | 195 | 8.0 | 18.0 | 0.00 | 0.02 | 0.02 | 29 | 1013.2 |
| 20260505203008 | 72 | 191 | 10.0 | 16.0 | 0.00 | 0.02 | 0.02 | 32 | 1013.1 |
| 20260505201511 | 72 | 222 | 9.0 | 16.0 | 0.00 | 0.02 | 0.02 | 35 | 1013.3 |
| 20260505200002 | 70 | 233 | 6.0 | 18.0 | 0.00 | 0.02 | 0.02 | 39 | 1013.8 |
| 20260505194502 | 71 | 224 | 8.0 | 17.0 | 0.00 | 0.02 | 0.02 | 38 | 1013.9 |
| 20260505193101 | 71 | 194 | 7.0 | 17.0 | 0.00 | 0.02 | 0.02 | 39 | 1014.0 |
| 20260505191558 | 70 | 183 | 7.0 | 18.0 | 0.00 | 0.02 | 0.02 | 40 | 1014.1 |
| 20260505190057 | 69 | 200 | 6.0 | 13.0 | 0.00 | 0.02 | 0.02 | 50 | 1014.5 |
| 20260505184553 | 66 | 160 | 3.0 | 17.0 | 0.00 | 0.02 | 0.02 | 52 | 1014.6 |
| 20260505183102 | 66 | 160 | 6.0 | 13.0 | 0.00 | 0.02 | 0.02 | 54 | 1014.8 |
| 20260505181551 | 66 | 205 | 2.0 | 11.0 | 0.00 | 0.02 | 0.02 | 56 | 1015.0 |
| 20260505180051 | 65 | 180 | 2.0 | 9.0 | 0.00 | 0.02 | 0.02 | 57 | 1015.2 |
| 20260505174555 | 63 | 195 | 3.0 | 7.0 | 0.00 | 0.02 | 0.02 | 59 | 1015.2 |
| 20260505173041 | 62 | 164 | 1.0 | 4.0 | 0.00 | 0.02 | 0.02 | 60 | 1015.3 |
| 20260505171545 | 62 | 152 | 3.0 | 15.0 | 0.00 | 0.02 | 0.02 | 60 | 1015.4 |
| 20260505170037 | 61 | 156 | 3.0 | 9.0 | 0.00 | 0.02 | 0.02 | 61 | 1015.2 |
| 20260505164537 | 61 | 175 | 3.0 | 8.0 | 0.00 | 0.02 | 0.02 | 63 | 1015.0 |
| 20260505163036 | 62 | 186 | 3.0 | 8.0 | 0.00 | 0.02 | 0.02 | 62 | 1015.3 |
| 20260505161533 | 61 | 162 | 3.0 | 8.0 | 0.00 | 0.02 | 0.02 | 65 | 1015.1 |
| 20260505153027 | 57 | 181 | 2.0 | 5.0 | 0.00 | 0.02 | 0.02 | 68 | 1015.0 |
| 20260505151528 | 57 | 193 | 3.0 | 5.0 | 0.00 | 0.02 | 0.02 | 70 | 1014.8 |
| 20260505124523 | 53 | 145 | 0.0 | 3.0 | 0.00 | 0.00 | 0.00 | 83 | 1013.6 |
| 20260505123027 | 53 | 133 | 1.0 | 3.0 | 0.00 | 0.00 | 0.00 | 83 | 1013.5 |
| 20260505121521 | 53 | 141 | 0.0 | 1.0 | 0.00 | 0.00 | 0.00 | 83 | 1013.8 |
| 20260505120029 | 53 | 126 | 0.0 | 0.0 | 0.00 | 0.00 | 0.00 | 82 | 1014.1 |
| 20260505114514 | 53 | 111 | 0.0 | 1.0 | 0.00 | 0.00 | 0.00 | 81 | 1014.1 |
| 20260505113011 | 54 | 63 | 0.0 | 3.0 | 0.00 | 0.00 | 0.00 | 81 | 1014.4 |
| 20260505111514 | 54 | 122 | 0.0 | 3.0 | 0.00 | 0.00 | 0.00 | 79 | 1014.6 |
| 20260505101556 | 56 | 301 | 4.0 | 6.0 | 0.00 | 0.00 | 0.00 | 72 | 1015.5 |
| 20260505100054 | 57 | 313 | 5.0 | 9.0 | 0.00 | 0.00 | 0.00 | 71 | 1015.5 |
| 20260505094551 | 57 | 323 | 2.0 | 6.0 | 0.00 | 0.00 | 0.00 | 70 | 1015.9 |
| 20260505093058 | 57 | 297 | 2.0 | 5.0 | 0.00 | 0.00 | 0.00 | 70 | 1015.8 |
| 20260505091600 | 57 | 319 | 0.0 | 3.0 | 0.00 | 0.00 | 0.00 | 69 | 1016.2 |
| 20260505090045 | 58 | 267 | 0.0 | 3.0 | 0.00 | 0.00 | 0.00 | 67 | 1016.3 |
| 20260505084543 | 58 | 337 | 0.0 | 3.0 | 0.00 | 0.00 | 0.00 | 63 | 1016.6 |
| 20260505083041 | 59 | 285 | 0.0 | 3.0 | 0.00 | 0.00 | 0.00 | 60 | 1016.4 |
| 20260505081539 | 59 | 303 | 2.0 | 3.0 | 0.00 | 0.00 | 0.00 | 58 | 1016.4 |
| 20260505080044 | 58 | 298 | 0.0 | 0.0 | 0.00 | 0.00 | 0.00 | 57 | 1016.8 |
| 20260505074536 | 59 | 292 | 1.0 | 4.0 | 0.00 | 0.00 | 0.00 | 57 | 1016.7 |
| 20260505073039 | 59 | 319 | 1.0 | 4.0 | 0.00 | 0.00 | 0.00 | 57 | 1016.6 |
| 20260505071536 | 59 | 345 | 1.0 | 3.0 | 0.00 | 0.00 | 0.00 | 54 | 1016.8 |
| 20260505070029 | 58 | 120 | 0.0 | 2.0 | 0.00 | 0.00 | 0.00 | 55 | 1016.7 |
| 20260505064527 | 57 | 129 | 0.0 | 2.0 | 0.00 | 0.00 | 0.00 | 58 | 1016.9 |
| 20260505063027 | 57 | 128 | 0.0 | 0.0 | 0.00 | 0.00 | 0.00 | 57 | 1016.9 |
| 20260505061526 | 57 | 128 | 0.0 | 1.0 | 0.00 | 0.00 | 0.00 | 58 | 1016.7 |
| 20260505060040 | 57 | 128 | 0.0 | 2.0 | 0.00 | 0.00 | 0.00 | 58 | 1017.0 |
| 20260505054527 | 57 | 125 | 0.0 | 1.0 | 0.00 | 0.00 | 0.00 | 59 | 1017.1 |
| 20260505053026 | 57 | 55 | 0.0 | 0.0 | 0.00 | 0.00 | 0.00 | 56 | 1017.3 |
| 20260505051527 | 57 | 55 | 0.0 | 0.0 | 0.00 | 0.00 | 0.00 | 57 | 1017.1 |
| 20260505041525 | 59 | 352 | 1.0 | 6.0 | 0.00 | 0.00 | 0.00 | 54 | 1017.3 |
| 20260505040022 | 60 | 12 | 3.0 | 6.0 | 0.00 | 0.00 | 0.00 | 50 | 1017.4 |
| 20260505034521 | 60 | 323 | 3.0 | 7.0 | 0.00 | 0.00 | 0.00 | 48 | 1016.9 |
| 20260505033021 | 60 | 307 | 0.0 | 3.0 | 0.00 | 0.00 | 0.00 | 47 | 1016.6 |
| 20260505031520 | 60 | 1 | 0.0 | 5.0 | 0.00 | 0.00 | 0.00 | 47 | 1016.3 |
| 20260505030019 | 61 | 4 | 2.0 | 9.0 | 0.00 | 0.00 | 0.00 | 46 | 1015.8 |
| 20260505024519 | 62 | 7 | 4.0 | 11.0 | 0.00 | 0.00 | 0.00 | 44 | 1015.6 |
| 20260505023023 | 63 | 346 | 6.0 | 11.0 | 0.00 | 0.00 | 0.00 | 43 | 1015.3 |
| 20260505021521 | 64 | 345 | 6.0 | 15.0 | 0.00 | 0.00 | 0.00 | 41 | 1015.6 |
| 20260505020016 | 66 | 333 | 6.0 | 13.0 | 0.00 | 0.00 | 0.00 | 35 | 1015.5 |
| 20260505014516 | 68 | 307 | 6.0 | 11.0 | 0.00 | 0.00 | 0.00 | 30 | 1015.0 |
| 20260505013016 | 70 | 295 | 5.0 | 10.0 | 0.00 | 0.00 | 0.00 | 28 | 1014.9 |
| 20260505011515 | 71 | 314 | 5.0 | 9.0 | 0.00 | 0.00 | 0.00 | 29 | 1015.0 |
| 20260505010014 | 71 | 310 | 3.0 | 11.0 | 0.00 | 0.00 | 0.00 | 29 | 1015.1 |
| 20260505004520 | 71 | 293 | 6.0 | 13.0 | 0.00 | 0.00 | 0.00 | 28 | 1015.2 |
| 20260505003013 | 72 | 315 | 2.0 | 8.0 | 0.00 | 0.00 | 0.00 | 26 | 1015.2 |
| 20260505001513 | 72 | 319 | 7.0 | 20.0 | 0.00 | 0.00 | 0.00 | 27 | 1015.3 |
| 20260505000021 | 73 | 295 | 7.0 | 13.0 | 0.00 | 0.00 | 0.00 | 23 | 1015.0 |
| 20260504234511 | 74 | 302 | 5.0 | 14.0 | 0.00 | 0.00 | 0.00 | 21 | 1015.0 |
| 20260504233012 | 74 | 305 | 8.0 | 15.0 | 0.00 | 0.00 | 0.00 | 20 | 1014.9 |
| 20260504231511 | 75 | 260 | 2.0 | 14.0 | 0.00 | 0.00 | 0.00 | 20 | 1014.9 |
| 20260504230009 | 76 | 266 | 6.0 | 14.0 | 0.00 | 0.00 | 0.00 | 19 | 1014.7 |
| 20260504224507 | 76 | 248 | 5.0 | 15.0 | 0.00 | 0.00 | 0.00 | 19 | 1015.0 |
| 20260504223008 | 77 | 304 | 3.0 | 11.0 | 0.00 | 0.00 | 0.00 | 18 | 1015.1 |
| 20260504221507 | 78 | 257 | 2.0 | 14.0 | 0.00 | 0.00 | 0.00 | 17 | 1015.1 |
| 20260504220004 | 77 | 280 | 4.0 | 12.0 | 0.00 | 0.00 | 0.00 | 18 | 1015.0 |
| 20260504214505 | 78 | 220 | 8.0 | 17.0 | 0.00 | 0.00 | 0.00 | 19 | 1015.3 |
| 20260504213002 | 78 | 248 | 7.0 | 14.0 | 0.00 | 0.00 | 0.00 | 19 | 1015.1 |